STARLINK-11513, 62589

Orbit data source: Space-Track

STARLINK-11513, 62589 is a payload satellite owned by SpaceX/Seattle (US) in LEO that was launched on Mon, 13 Jan 2025 UTC via an FALCON 9 launch vehicle from the Air Force Eastern Test Range (AFETR). Payload-class satellites include a variety of spacecraft equipped with specific instruments for various scientific and technological missions. These include communications satellites like Starlink; space stations such as the ISS; scientific satellites like the Hubble; Earth observation satellites from companies like Planet Labs, Umbra, and HawkEye 360; GPS; miniature CubeSats for education and research; and military/defense satellites.

Loading next visibility...
Identifier
62589, 2025-008C
Orbit
LEO
Country
Flag of USUS
Related business
Manufacturer
SpaceX/Seattle
Mission
Operational Commercial Communications
Bus & Motor
STARLINK V2MD, Unknown motor
Mass
960 kg wet, ~910 kg dry
Launch date (UTC)
2025-01-13 (2 years ago)
Launch vehicle
FALCON 9
Launch site
Air Force Eastern Test Range (AFETR)
Object type
Payload
Rocket body
Debris
Shape & HBR
Box + 2 Pan, 18.1 m
Radar Cross Section
36.964 m², Large (>1 m²)

Expand to show TLE details & history
Last TLE update: 12 hours ago

TLE from 12 hours ago
0 STARLINK-11513
1 62589U 25008C   26236.29538212  .00151806  00000-0  11652-2 0  9994
2 62589  43.0018 195.9488 0001193 266.8224  93.2508 15.70838134 92475
Epoch: 2026-08-24T07:05Z
TLE epoch observation values (Epoch: 2026-08-24T07:05:21.015Z)
Latitude
0.00005°
Longitude
117.03216°
Altitude
356.317 km
Speed
7.697 km/s
True Right ascension
13h 03m 47s
True Declination
0° 00' 00"
Sunlit
Object was in daylight at epoch
Visualization orbit readout
Latitude
Unknown
Longitude
Unknown
Altitude
Unknown
Speed
Unknown
Apparent Right ascension
Unknown
Apparent Declination
Unknown
Sunlit
N/A
Visualization observer readout
Local Sidereal Time
10:28:57
Azimuth
Unknown
Elevation
Unknown
Doppler factor
Unknown
Orbital elements
Apogee altitude
359.285 km
Perigee altitude
357.678 km
Semi-major axis
6,736.619 km
Eccentricity
0.00012
Inclination
43.0018°
RAAN
195.9488°
Arg. of periapsis
266.8224°
True anomaly
93.26445°
Mean anomaly
93.2508°
Eccentric anomaly
93.25762°
Mean motion
3.92537 °/min
Orbital period
91.71 mins
BSTAR
0.0011652
Loading maneuver chart data...
Computing Atmospheric mass density...
Loading historical data...
Loading historical data...
Loading historical data...
Loading historical data...
Loading historical data...
Loading historical data...
Loading historical data...

Documentation

Showing up to 5 results
|